Find Kosmos-651

NORAD ID: 7291 Int'l Des: 1974-029 Owner: VMF Country: SU operational
LEOCIRCULAR

リアルタイム位置

3D地球を読み込み中...

Kosmos-651について

説明を読み込み中...

次回通過

Passes for default location (London). Set your location on the main map for personalized predictions.

高度履歴

Loading altitude history...

軌道要素

1 7291U 74029A 26106.43922023 -.00000061 00000-0 22834-4 0 9992
2 7291 64.9689 116.3161 0021921 72.4994 287.8464 13.93091127642111
Epoch: Apr 16, 2026 • Age: 26 hours

現在のステータス

高度 911.3 km
速度 7.41 km/s
衛星直下点 61.23°N, 134.43°E
タイプ other

Most Searched